Regional Weather Roundup
Issued by NWS

Current Version | Previous Version | Text Only | Print | Product List | Glossary On
Versions: 1 2 3 4 5 6 7 8 9 10 11 12 13 14 15 16 17 18 19 20 21 22 23 24 25 26 27 28 29 30 31 32 33 34 35 36 37 38 39 40 41 42 43 44 45 46 47 48 49 50
000
ASUS42 KKEY 230710
RWRKEY

FLORIDA REGIONAL WEATHER ROUNDUP FOR THE FLORIDA KEYS
NATIONAL WEATHER SERVICE KEY WEST FLORIDA
200 AM EST SUN NOV 23 2014

...SOUTH FLORIDA AND THE KEYS...

CITY           SKY/WX    TMP DP  RH WIND       PRES   REMARKS
FORT MYERS     CLOUDY    72  71  97 E8        30.02F
SW REGIONAL AP CLOUDY    71  70  96 E6        30.03F
NAPLES         CLOUDY    72  71  97 E8        30.02F
MIAMI          MOCLDY    77  72  84 E17       30.04F
WEST KENDALL   PTCLDY    76  72  87 SE10      30.03F
HOMESTEAD      PTCLDY    76  72  86 E9        30.03F
MARATHON       PTCLDY    78  74  87 SE12G21   30.00F
BOCA CHICA NAS CLOUDY    75  72  90 SE14      30.00F
KEY WEST INTL  CLOUDY    78  78 100 SE13      30.01S

...INTERNATIONAL WEATHER...

CITY           SKY/WX    TMP DP  RH WIND       PRES   REMARKS
NASSAU BAHAMAS NOT AVBL
CANCUN MEXICO  PTCLDY    77  73  88 SE3       29.94F
COZUMEL MEXICO PTCLDY    70  70 100 CALM      29.94S

ADJACENT COASTAL WATERS...

STATION/POSITION TIME  SKY/WX   TEMP    WIND        PRES    WAVE
                                AIR SEA DIR/SP/G            HT/PER
                 (UTC)          (F)     (DEG/KT/KT) (MB)    (FT/S)
PULASKI SHOAL LI 0600            78     120/ 14/ 16 1015.9F
SAND KEY         0700            79     120/ 18/ 21 1015.8F
SOMBRERO KEY     0600            79     120/ 26/ 27 1016.7F
LONG KEY         0554            78 74  130/ 16/ 18 1017.3F
MOLASSES REEF    0600            78 78  120/ 23/ 26 1016.9F
FOWEY ROCKS      NOT AVBL
Buoy 42080       NOT AVBL

$$


USA.gov is the U.S. government's official web portal to all federal, state and local government web resources and services.